HST,Max TemperatureF,Mean TemperatureF,Min TemperatureF,Max Dew PointF,MeanDew PointF,Min DewpointF,Max Humidity, Mean Humidity, Min Humidity, Max Sea Level PressureIn, Mean Sea Level PressureIn, Min Sea Level PressureIn, Max VisibilityMiles, Mean VisibilityMiles, Min VisibilityMiles, Max Wind SpeedMPH, Mean Wind SpeedMPH, Max Gust SpeedMPH,PrecipitationIn, CloudCover, Events, WindDirDegrees
2013-12-1,88,82,75,72,68,63,83,67,45,29.98,29.92,29.86,10,10,10,17,10,18,0.00,1,,340
2013-12-2,82,78,73,72,70,68,87,74,67,29.99,29.95,29.90,10,10,10,17,7,,0.00,5,Rain,225
2013-12-3,82,78,73,70,69,66,84,73,63,29.97,29.93,29.87,10,10,10,10,4,,0.00,2,,310
2013-12-4,82,76,70,67,64,58,79,65,47,29.99,29.93,29.86,10,10,10,12,6,,0.00,3,,165
2013-12-5,82,76,71,68,66,62,76,69,60,30.00,29.95,29.91,10,10,10,9,5,,0.00,0,,124
2013-12-6,82,76,71,68,65,61,76,67,56,30.00,29.95,29.89,10,10,10,12,6,,0.00,2,,100
2013-12-7,82,76,71,69,65,60,74,64,54,29.99,29.94,29.89,10,10,10,13,5,,0.00,1,,84
2013-12-8,87,80,73,74,68,62,88,70,46,30.03,29.98,29.91,10,10,10,16,7,,0.00,2,,151
2013-12-9,82,78,75,74,71,63,84,75,64,30.07,30.01,29.96,10,10,10,17,10,,0.00,2,,174
2013-12-10,82,78,73,70,68,59,85,71,47,30.01,29.97,29.90,10,10,10,15,8,18,0.00,3,Rain,169
2013-12-11,82,77,72,70,67,64,79,71,61,30.01,29.97,29.93,10,10,10,13,7,,0.00,2,,131
2013-12-12,82,78,75,70,67,64,83,69,56,30.06,30.00,29.93,10,10,10,10,6,,0.00,6,Rain,182
2013-12-13,82,76,71,70,67,61,78,72,62,30.05,30.00,29.95,10,10,10,12,4,,0.00,2,,199
2013-12-14,82,78,73,69,67,64,79,71,58,29.99,29.96,29.89,10,10,10,9,4,,0.00,4,,139
2013-12-15,82,76,70,67,64,61,76,66,53,29.96,29.91,29.86,10,10,10,13,6,,0.00,1,,44
2013-12-16,84,78,71,68,65,62,81,67,46,29.98,29.94,29.90,10,10,10,15,8,,0.00,1,,8
2013-12-17,82,76,70,67,62,58,76,63,52,30.02,29.98,29.93,10,10,10,14,5,,0.00,0,,63
2013-12-18,81,75,69,67,63,59,81,64,52,30.03,29.99,29.94,10,10,10,9,6,,0.00,2,,116
2013-12-19,81,74,68,68,62,57,74,64,47,30.03,29.99,29.94,10,10,10,10,4,,0.00,1,,143
2013-12-20,82,76,71,69,65,59,79,67,50,30.03,29.99,29.93,10,10,10,15,6,,0.00,1,,136
2013-12-21,82,76,71,70,66,60,83,70,58,30.00,29.97,29.93,10,10,10,12,7,,0.00,2,,162
2013-12-22,81,76,71,69,66,63,91,73,58,29.99,29.94,29.90,10,10,10,9,5,,0.00,3,Rain,85
2013-12-23,82,76,70,69,65,61,78,66,54,30.01,29.97,29.91,10,10,10,17,7,18,0.00,2,,21
2013-12-24,82,77,72,68,65,61,73,65,56,30.03,29.99,29.94,10,10,10,15,8,,0.00,1,,146
2013-12-25,81,76,70,70,65,61,85,69,60,30.02,29.97,29.92,10,10,10,15,5,24,0.00,2,,174
2013-12-26,82,75,68,65,58,34,81,55,27,29.97,29.91,29.86,10,10,10,12,6,,0.00,1,,131
2013-12-27,82,75,68,64,57,17,67,52,14,29.93,29.88,29.82,10,10,10,9,5,,0.00,1,,139
2013-12-28,82,78,73,69,64,57,76,63,54,29.93,29.89,29.85,10,10,10,15,7,,0.00,2,,160
2013-12-29,84,78,73,70,66,56,79,68,51,29.96,29.90,29.83,10,10,10,30,9,39,0.04,4,Rain,4
2013-12-30,82,78,73,67,63,54,71,61,48,29.97,29.92,29.88,10,10,10,17,8,,0.01,5,Rain,354
2013-12-31,82,76,71,66,62,50,85,60,37,29.98,29.94,29.90,10,10,9,14,6,,0.00,3,,198